www.pogodaiklimat.ru

Погода и климат >> Архив погоды >> Нигер >> Zinder


ПОГОДА в Zinder

  • Прогноз погоды в Zinder
  • Монитор погоды в Zinder
  • Климат города

АРХИВ ПОГОДЫ в Zinder

Время (UTC), дата Ветер
(напр.,м/с)
 
Видим.   Явления Облачность Т
(С)
Тd
(С)
f
(%)
Тe
(С)
Тes
(С)
Комфортность P
(гПа)
Po
(гПа)
Тmin
(С)
Tmax
(С)
R
(мм)
R24
(мм)
S
(см)
09 18.09 З 6 10 км 9/0
[Cs]
+30.2 +20.7 57 +37 +42 очень
душно
1009.8 960.1
12 18.09 ЮЗ 8 10 км 9/0
[Cs]
+35.0 +21.8 46 +43 +46 опасность
перегрева
1008.4 959.0
15 18.09 ЮВ 7 2500 м пыльный позёмок 9/3 1000 м
[Cb cap Ac trans Ci sp]
+35.7 +20.9 42 +43 +43 опасность
перегрева
1008.2 958.8
18 18.09 З 4 10 км в посл. час гроза 9/3 1000 м
[Cb cap Ac As Ci sp]
+27.5 +20.1 64 +34 +34 очень
душно
1008.2 958.0 +36.8
21 18.09 штиль 0 10 км 9/0
[Ac trans Cs]
+25.5 +21.6 79 +33 +33 очень
душно
1010.9 960.8
00 19.09 штиль 0 10 км 9/0
[Ac As Ci sp]
+25.2 +22.8 87 +33 +33 очень
душно
1019.6 960.0
03 19.09 штиль 0 10 км 9/0
[Ac trans Ci sp]
+24.3 +22.8 91 +32 +32 очень
душно
1009.0 959.4
06 19.09 штиль 0 10 км 9/0
[Ac trans Cs]
+23.8 +22.2 91 +31 +31 очень
душно
1010.5 960.1 +23.3
09 19.09 З 6 10 км 9/0
[Ac trans Cs]
+30.4 +21.9 60 +39 +42 очень
душно
1012.5 962.4
12 19.09 З 4 10 км 6/0
[Ac trans Ci sp]
+34.3 +20.9 46 +42 +53 опасность
перегрева
1010.3 960.6
15 19.09 Ю 4 10 км 6/0
[Ci sp]
+35.2 +19.7 40 +41 +45 опасность
перегрева
1007.7 958.1
18 19.09 штиль 0 10 км зарница 6/1 1200 м
[Cb cap Ci sp]
+32.0 +22.0 56 +41 +41 опасность
перегрева
1008.1 959.0 +36.0
21 19.09 штиль 0 10 км 6/0
[Ci sp]
+29.0 +22.6 68 +38 +38 очень
душно
1010.2 960.5
00 20.09 ЮВ 10 10 км 9/1 1000 м
[Cb cap Ac trans Ci sp]
+28.8 +19.6 58 +35 +35 очень
душно
1010.2 960.7
03 20.09 ЮЗ 10 10 км зарница 9/1 1000 м
[Cb cap Ac As Ci sp]
+25.8 +17.9 62 +30 +30 душно 1009.8 960.2
06 20.09 З 4 10 км 9/0
[Ac trans Cs]
+24.0 +20.1 79 +30 +30 очень
душно
1010.4 960.4 +23.6
09 20.09 З 6 10 км 8/0
[Cs]
+30.5 +20.2 54 +37 +42 очень
душно
1011.1 961.4
12 20.09 З 8 10 км 6/0
[Ci sp]
+34.5 +20.8 45 +42 +45 опасность
перегрева
1008.6 959.3
15 20.09 З 4 10 км 9/1 1200 м
[Cu hum Cs]
+36.0 +20.7 41 +43 +46 опасность
перегрева
1007.0 957.6
18 20.09 штиль 0 10 км 9/0
[Cs]
+33.0 +20.6 48 +40 +40 очень
душно
1007.2 957.4 +36.2
21 20.09 штиль 0 10 км 9/0
[Cs]
+29.0 +22.6 68 +38 +38 очень
душно
1008.6 959.0
00 21.09 штиль 0 10 км 9/0
[Ac As Ci sp]
+27.8 +22.5 73 +37 +37 очень
душно
1008.5 959.1
03 21.09 З 2 10 км 9/0
[Ac trans Ci sp]
+27.5 +22.5 74 +36 +36 очень
душно
1007.0 957.8
06 21.09 З 2 10 км 9/0
[Ac trans Ci sp]
+27.0 +22.7 77 +36 +36 очень
душно
1008.2 958.6 +26.8
09 21.09 З 6 10 км 9/0
[Ac trans Cs]
+33.0 +21.5 51 +41 +45 опасность
перегрева
1009.6 960.1
12 21.09 З 6 10 км 9/3 1200 м
[Cu med, cong Ac trans Ci sp]
+36.0 +20.4 40 +42 +45 опасность
перегрева
1007.9 958.6
15 21.09 штиль 0 10 км 8/3 1000 м
[Cb cap Ci sp]
+37.0 +18.0 33 +41 +46 опасность
перегрева
1004.8 955.8
18 21.09 штиль 0 10 км зарница 8/1 1200 м
[Cb cap Ac trans Cs]
+33.1 +21.0 49 +40 +40 очень
душно
1004.5 955.2 +37.7
21 21.09 штиль 0 10 км 8/0
[Cs]
+30.5 +19.4 52 +36 +36 очень
душно
1007.8 958.5
00 22.09 штиль 0 10 км 9/0
[Cs]
+27.0 +22.0 74 +35 +35 очень
душно
1008.0 958.6
03 22.09 штиль 0 10 км 9/0
[Cs]
+25.5 +19.7 70 +31 +31 очень
душно
1007.3 957.9
06 22.09 штиль 0 10 км 9/0
[Ac As Ci sp]
+26.0 +19.4 67 +31 +32 очень
душно
1008.8 959.1 +25.0
09 22.09 З 6 10 км 8/0
[Ac trans Cs]
+32.0 +21.7 55 +41 +44 опасность
перегрева
1009.9 960.4
12 22.09 ЮЗ 4 10 км 9/0
[Ac trans Ci sp]
+36.5 +20.7 40 +43 +52 опасность
перегрева
1007.9 958.6
15 22.09 ЮВ 6 10 км 8/1 1000 м
[Cu hum Ac trans Ci sp]
+36.6 +18.6 35 +41 +42 опасность
перегрева
1006.3 956.9
18 22.09 штиль 0 10 км зарница 9/1 1000 м
[Cb cap Ac trans Ci sp]
+33.2 +20.7 48 +40 +40 очень
душно
1006.6 957.1 +37.4
21 22.09 ЮЗ 4 10 км 6/0
[Ac trans Ci sp]
+29.2 +20.4 59 +36 +36 очень
душно
1008.6 959.1
00 23.09 штиль 0 10 км 6/0
[Ac trans Ci sp]
+27.5 +20.9 67 +34 +34 очень
душно
1008.4 959.1
03 23.09 штиль 0 10 км 6/0
[Ci sp]
+26.0 +20.9 74 +33 +33 очень
душно
1007.6 958.3
06 23.09 З 6 10 км 9/0
[Ac cast Cs]
+25.6 +21.3 77 +32 +33 очень
душно
1008.8 959.1 +25.3
09 23.09 З 8 10 км 6/0
[Ci sp]
+31.3 +21.3 55 +39 +41 очень
душно
1010.4 960.8
12 23.09 З 8 10 км 9/0
[Ac trans Ci sp]
+35.0 +21.1 44 +42 +44 опасность
перегрева
1008.5 959.1
15 23.09 З 6 10 км 9/0
[Ac trans Ci sp]
+37.0 +20.4 38 +43 +45 опасность
перегрева
1005.9 956.8
18 23.09 штиль 0 10 км 9/0
[Ac trans Ci sp]
+32.8 +21.8 52 +41 +41 опасность
перегрева
1006.9 957.3 +37.3
21 23.09 З 8 10 км 6/0
[Ci sp]
+29.5 +23.1 69 +40 +40 очень
душно
1008.2 958.7
00 24.09 З 10 10 км 6/0
[Ci sp]
+27.0 +24.2 85 +38 +38 очень
душно
1008.3 958.9
03 24.09 З 8 10 км 6/0
[Ci sp]
+26.8 +24.0 85 +37 +37 очень
душно
1007.6 958.9
06 24.09 З 8 10 км 6/0
[Ci sp]
+26.5 +23.7 85 +36 +36 очень
душно
1009.0 959.3 +26.3
09 24.09 СЗ 4 10 км 8/0
[Cs]
+32.5 +22.6 56 +42 +50 опасность
перегрева
1010.1 960.6
12 24.09 В 4 10 км 8/1 1200 м
[Cu hum Cs]
+37.7 +19.1 34 +42 +53 опасность
перегрева
1007.5 958.3
15 24.09 СВ 8 10 км 9/3 1200 м
[Cu med, cong Cs]
+39.0 +16.2 26 +41 +41 опасность
перегрева
1005.2 956.2
18 24.09 штиль 0 10 км 9/0
[Ac trans Cs]
+30.5 +18.5 49 +35 +35 очень
душно
1007.4 957.7 +39.5
21 24.09 ЮВ 8 10 км зарница 9/4 1200 м
[Cb cap Ac As Ci sp]
+26.0 +19.2 66 +31 +31 очень
душно
1012.5 962.6
00 25.09 З 4 10 км 9/0
[Cs]
+25.5 +21.5 79 +33 +33 очень
душно
1009.0 959.6
03 25.09 штиль 0 10 км 8/0
[Ac trans Ci sp]
+24.5 +20.0 76 +30 +30 очень
душно
1008.3 959.0
06 25.09 штиль 0 10 км 8/0
[Ac trans Ci sp]
+25.0 +19.8 73 +31 +31 очень
душно
1010.3 960.3 +24.0

 

Местоположение метеостанции Zinder (Нигер): широта 13.78 долгота 8.98 высота над уровнем моря 453 м.

В архиве по умолчанию представлена погода в Zinder за последнюю неделю. Архивные данные за месяц целиком и за предыдущие месяцы, начиная с января 2011 года, Вы можете получить, выбрав интересующий диапазон дат из раскрывающегося списка и нажав кнопку "Ввод!".


*Определитесь, кто Вы:
робот инопланетянин человек

Внимание! Время в таблицах - всемирное. Для получения местного времени необходимо прибавить поправку, которая в Zinder равна 1 ч.

Смотрите также архив погоды в соседних городах и на ближайших метеорологических станциях:

Погода в Magaria (Нигер) (89 км)
Погода в Goure (Нигер) (144 км)
Погода в Cano (Нигерия) (199 км)
Погода в Maradi (Нигер) (208 км)
Погода в Maine-Soroa (Нигер) (330 км)
Погода в Agadez (Нигер) (371 км)
Погода в Birni-Nkonni (Нигер) (403 км)
Погода в Diffa (Нигер) (413 км)
Погода в Tahoua (Нигер) (421 км)
Погода в Nguigmi (Нигер) (450 км)

Пояснения к столбцам:

Ветер - указаны скорость ветра в м/с - средняя за 10 мин, порывы в срок и между сроками (в фигурных скобках) и направление, откуда дует ветер: С - северный, СВ - северо-восточный, В - восточный, ЮВ - юго-восточный, Ю - южный, ЮЗ - юго-западный, З - западный, СЗ - северо-западный.
Видимость - горизонтальная дальность видимости в метрах или километрах. При видимости от 1 до 10 км при отсутствии осадков обычно наблюдается дымка, при ухудшении видимости до 1 км и менее - туман. В сухую погоду видимость может ухудшаться дымом, пылью или мглою.
Явления - указаны атмосферные явления, наблюдавшиеся в срок или в последний час перед сроком; фигурными скобками обозначены явления, наблюдавшиеся между сроками (за 1-3 часа до срока); квадратными скобками обозначены град или гололедные отложения с указанием их диаметра в мм.
Облачность - указаны через наклонную черту общая и нижняя облачность в баллах и высота нижней границы облаков в метрах; квадратными скобками обозначены формы облаков: Ci - перистые, Cs - перисто-слоистые, Cc - перисто-кучевые, Ac - высококучевые, As - высокослоистые, Sc - слоисто-кучевые, Ns - слоисто-дождевые, Cu - кучевые, Cb - кучево-дождевые. Подробнее классификацию облаков см. в Атласе облаков (PDF).
T - Температура воздуха - температура, измеренная на высоте 2 м над землей.
Td - Температура точки росы - температура, при понижении до которой содержащийся в воздухе водяной пар достигнет насыщения.
f - Относительная влажность воздуха - влажноcть воздуха, измеренная на высоте 2 м над землей.
Te - Эффективная температура - температура, которую ощущает одетый по сезону человек в тени. Характеристика душности погоды. При расчете учитывается влияние влажности воздуха и скорости ветра на теплоощущения человека.
Tes - Эффективная температура на солнце - температура, которую ощущает человек, с поправкой на солнечный нагрев. Характеристика знойности погоды. Зависит от высоты солнца над горизонтом, облачности и скорости ветра. Ночью, в пасмурную погоду, а также при ветре 12 м/с и более поправка равна нулю.
P - Атмосферное давление - приведенное к уровню моря атмосферное давление.
Po - Атмосферное давление - измеренное на уровне метеостанции атмосферное давление.
Tmin - Минимальная температура - минимум температуры воздуха на высоте 2 м над землей.
Tmax - Максимальная температура - максимум температуры воздуха на высоте 2 м над землей.
R - Количество осадков - Количество выпавших осадков за период времени, мм. При наведении курсора мыши на число - период времени, за который выпало указанное количество осадков.
R24 - Количество осадков - Количество выпавших осадков за 24 часа, мм.
S - Снежный покров - Высота снежного покрова, см. При наведении курсора мыши на число - состояние снежного покрова и степень покрытия местности в баллах.